{"data":{"norad_id":68032,"epoch":"2026-05-25T03:20:10.730112Z","epoch_age_seconds":73189,"freshness":"FRESH","line1":"1 68032U 26040T   26145.13901308  .00028115  00000+0  86973-3 0  9996","line2":"2 68032  97.2844  94.2265 0001268  84.9905 275.1482 15.33453133 13188","mean_motion":15.33453133,"eccentricity":0.0001268,"inclination_deg":97.2844,"raan_deg":94.2265,"arg_perigee_deg":84.9905,"mean_anomaly_deg":275.1482,"bstar":0.00086973,"rev_number":1318,"period_min":93.90570660499,"perigee_km":464.65120092131,"apogee_km":466.38675207695,"semimajor_km":6843.6559764991,"source":"CELESTRAK","updated_at":"2026-05-25T13:38:21.807834Z"}}